1486548000.82,61238,10.88,73134.0,0.43,-28.85,-30.95,0,*4C
1486548002.05,61239,10.94,73138.3,0.43,-28.69,-30.89,0,*42
1486548003.24,61240,10.88,73136.3,0.43,-28.97,-31.17,0,*4B
1486548004.49,61241,10.88,73138.3,0.45,-29.01,-31.11,0,*44
1486548005.73,61242,10.88,73136.8,0.43,-29.73,-31.95,0,*48
1486548006.95,61243,10.88,73138.0,0.43,-29.17,-31.17,0,*41
1486548008.2,61244,10.88,73136.5,0.43,-28.79,-30.89,0,*49
1486548009.42,61245,10.88,73136.5,0.45,-28.31,-30.51,0,*47
1486548010.63,61246,10.88,73138.3,0.45,-28.15,-30.05,0,*43
1486548011.9,61247,10.88,73136.3,0.47,-27.83,-30.01,0,*44
1486548013.12,61248,10.94,73138.8,0.47,-27.93,-29.95,0,*4F
1486548014.36,61249,10.88,73138.0,0.51,-28.09,-30.27,0,*44
1486548015.55,61250,10.88,73136.8,0.53,-27.93,-30.11,0,*47
1486548016.76,61251,10.88,73138.5,0.55,-27.89,-29.95,0,*4F
1486548018.0,61252,10.88,73134.5,0.55,-27.99,-30.11,0,*49
1486548019.24,61253,10.94,73140.3,0.55,-28.05,-30.11,0,*42
1486548020.43,61254,10.88,73136.0,0.57,-27.71,-29.83,0,*48
1486548021.64,61255,10.88,73136.0,0.57,-27.35,-29.57,0,*40
1486548022.85,61256,10.88,73136.8,0.59,-27.67,-29.79,0,*46
1486548024.07,61257,10.88,73132.8,0.61,-28.21,-30.45,0,*46
1486548025.3,61258,10.88,73136.5,0.61,-28.37,-30.61,0,*48
1486548026.54,61259,10.88,73134.8,0.61,-28.09,-30.17,0,*45
1486548027.76,61260,10.88,73132.5,0.61,-28.37,-30.51,0,*40
1486548028.98,61261,10.88,73136.8,0.65,-28.69,-30.89,0,*4B
1486548030.21,61262,10.88,73134.5,0.63,-28.69,-30.83,0,*44
1486548031.45,61263,10.88,73138.0,0.63,-28.25,-30.45,0,*47
1486548032.67,61264,10.88,73134.8,0.65,-28.09,-30.27,0,*4C
1486548033.88,61265,10.88,73136.8,0.65,-28.85,-30.95,0,*40
1486548035.1,61266,10.88,73132.5,0.65,-29.01,-31.29,0,*48
1486548036.37,61267,10.88,73134.8,0.63,-29.29,-31.51,0,*4A
1486548037.63,61268,10.88,73136.0,0.63,-29.73,-31.91,0,*46
1486548038.87,61269,10.88,73134.8,0.63,-29.57,-31.85,0,*44
1486548040.09,61270,10.88,73138.0,0.63,-29.83,-32.23,0,*4A
1486548041.31,61271,10.88,73134.0,0.63,-30.11,-32.23,0,*48
1486548042.52,61272,10.88,73134.5,0.63,-29.79,-32.01,0,*4D
1486548043.77,61273,10.88,73138.0,0.63,-29.57,-31.85,0,*4F
1486548044.99,61274,10.88,73136.0,0.65,-29.67,-31.95,0,*4C
1486548046.18,61275,10.88,73132.5,0.61,-29.95,-32.13,0,*49
1486548047.37,61276,10.88,73136.0,0.61,-29.79,-32.23,0,*4B
1486548048.56,61277,10.88,73136.3,0.61,-29.95,-32.23,0,*48
1486548049.83,61278,10.88,73136.3,0.59,-30.01,-32.19,0,*40
1486548051.09,61279,10.88,73136.5,0.59,-30.39,-32.85,0,*4F
1486548052.28,61280,10.88,73138.0,0.57,-30.11,-32.39,0,*4A
1486548053.49,61281,10.88,73138.5,0.57,-30.45,-32.85,0,*4D
1486548054.68,61282,10.88,73138.0,0.57,-30.27,-32.69,0,*48
1486548055.94,61283,10.88,73136.3,0.55,-30.39,-32.85,0,*46
1486548057.16,61284,10.88,73138.8,0.55,-30.27,-32.69,0,*4C
1486548058.37,61285,10.88,73136.0,0.53,-30.17,-32.57,0,*45
1486548059.61,61286,10.88,73140.8,0.51,-30.11,-32.45,0,*41
1486548060.86,61287,10.88,73140.8,0.51,-29.89,-32.23,0,*49
1486548062.1,61288,10.88,73138.5,0.51,-30.33,-32.79,0,*40
1486548063.33,61289,10.88,73142.3,0.47,-30.23,-32.51,0,*4D
1486548064.57,61290,10.88,73142.3,0.47,-30.33,-32.85,0,*4D
1486548065.78,61291,10.88,73138.3,0.45,-30.23,-32.63,0,*47
1486548067.0,61292,10.94,73142.5,0.47,-29.95,-32.23,0,*47
1486548068.22,61293,10.88,73136.5,0.47,-29.79,-32.13,0,*47
1486548069.44,61294,10.88,73138.8,0.45,-30.01,-32.35,0,*41
1486548070.63,61295,10.88,73138.0,0.45,-29.79,-32.13,0,*43
1486548071.85,61296,10.88,73136.5,0.45,-29.45,-31.91,0,*46
1486548073.11,61297,10.88,73138.8,0.45,-29.51,-32.07,0,*4E
1486548074.32,61298,10.88,73140.8,0.43,-30.01,-32.35,0,*4B
1486548075.53,61299,10.88,73136.0,0.43,-29.73,-32.13,0,*43
1486548076.72,61300,10.94,73140.3,0.43,-29.23,-31.67,0,*47
1486548077.92,61301,10.88,73140.3,0.43,-28.97,-31.17,0,*4F
1486548079.13,61302,10.88,73138.0,0.41,-28.85,-31.17,0,*4D
1486548080.33,61303,10.88,73138.5,0.43,-29.57,-32.01,0,*44
1486548081.57,61304,10.88,73142.0,0.43,-29.73,-32.29,0,*4F
1486548082.79,61305,10.88,73136.8,0.45,-29.61,-32.07,0,*47
1486548084.01,61306,10.88,73138.8,0.45,-29.61,-31.95,0,*4C
1486548085.26,61307,10.88,73136.8,0.41,-29.89,-32.35,0,*46
1486548086.45,61308,10.88,73138.3,0.43,-29.57,-32.01,0,*4F
1486548087.7,61309,10.88,73136.5,0.43,-29.39,-31.95,0,*48
1486548088.94,61310,10.88,73136.5,0.41,-29.35,-31.79,0,*4C
1486548090.16,61311,10.88,73136.8,0.41,-28.85,-31.29,0,*42
1486548091.36,61312,10.88,73136.8,0.43,-28.85,-31.29,0,*43
1486548092.63,61313,10.88,73136.0,0.41,-28.79,-31.11,0,*48
1486548093.82,61314,10.88,73138.8,0.43,-29.07,-31.45,0,*44
1486548095.07,61315,10.88,73136.8,0.43,-29.17,-31.61,0,*42
1486548096.29,61316,10.88,73136.8,0.45,-28.79,-31.29,0,*42
1486548097.54,61317,10.88,73138.8,0.45,-28.75,-31.11,0,*44
1486548098.76,61318,10.88,73136.0,0.43,-29.01,-31.45,0,*4E
1486548099.95,61319,10.88,73136.3,0.43,-29.07,-31.33,0,*48
1486548101.19,61320,10.88,73136.0,0.45,-28.75,-31.11,0,*40
1486548102.42,61321,10.88,73136.5,0.45,-28.91,-31.29,0,*40
1486548103.67,61322,10.88,73136.3,0.45,-29.29,-31.91,0,*42
1486548104.89,61323,10.88,73138.3,0.45,-29.61,-31.95,0,*4B
1486548106.13,61324,10.88,73136.8,0.45,-29.01,-31.57,0,*44
1486548107.37,61325,10.88,73138.3,0.45,-29.13,-31.57,0,*46
1486548108.61,61326,10.88,73138.3,0.45,-29.17,-31.73,0,*47
1486548109.83,61327,10.88,73140.3,0.45,-29.17,-31.79,0,*4C
1486548111.03,61328,10.88,73132.8,0.43,-29.83,-32.35,0,*43
1486548112.25,61329,10.88,73138.8,0.43,-29.39,-32.01,0,*44
1486548113.44,61330,10.88,73138.0,0.43,-29.57,-32.13,0,*47
1486548114.68,61331,10.88,73138.8,0.41,-29.67,-32.29,0,*4E
1486548115.88,61332,10.88,73136.3,0.43,-29.83,-32.39,0,*44
1486548117.08,61333,10.88,73136.8,0.43,-30.05,-32.57,0,*4B
1486548118.33,61334,10.88,73138.0,0.41,-29.39,-32.01,0,*4A
1486548119.57,61335,10.88,73136.0,0.41,-29.39,-32.01,0,*4B
1486548120.81,61336,10.88,73138.5,0.41,-29.39,-32.01,0,*48
1486548122.05,61337,10.88,73136.5,0.41,-29.23,-31.95,0,*4C
1486548123.33,61338,10.88,73136.0,0.41,-29.51,-32.19,0,*41
1486548124.57,61339,10.88,73138.3,0.41,-29.73,-32.39,0,*42
1486548125.84,61340,10.88,73138.5,0.41,-29.51,-32.19,0,*4E
1486548127.09,61341,10.88,73136.0,0.39,-29.89,-32.45,0,*4C
1486548128.34,61342,10.88,73136.3,0.37,-29.45,-32.07,0,*47
1486548129.59,61343,10.88,73136.3,0.39,-28.91,-31.39,0,*4E
1486548130.83,61344,10.88,73138.3,0.39,-29.01,-31.57,0,*49
1486548132.06,61345,10.88,73136.5,0.39,-29.39,-32.01,0,*43
1486548133.25,61346,10.88,73136.3,0.39,-29.07,-31.67,0,*4E
1486548134.47,61347,10.88,73140.8,0.39,-29.23,-31.73,0,*4C
1486548135.71,61348,10.88,73138.8,0.39,-28.91,-31.39,0,*45
1486548136.96,61349,10.94,73144.0,0.39,-29.29,-31.91,0,*44
1486548138.17,61350,10.88,73138.5,0.39,-29.07,-31.73,0,*4C
1486548139.42,61351,10.88,73138.0,0.41,-28.79,-31.29,0,*45
1486548140.66,61352,10.88,73138.5,0.41,-28.37,-30.95,0,*4A
1486548141.93,61353,10.88,73136.5,0.41,-28.21,-30.73,0,*44
1486548143.14,61354,10.88,73138.5,0.43,-28.47,-31.05,0,*41
1486548144.38,61355,10.88,73136.5,0.43,-28.47,-31.11,0,*45
1486548145.57,61356,10.88,73138.8,0.43,-29.07,-31.79,0,*4D
1486548146.81,61357,10.88,73136.5,0.41,-29.39,-32.01,0,*4F
1486548148.05,61358,10.88,73142.0,0.43,-29.01,-31.61,0,*4C
1486548149.27,61359,10.88,73138.3,0.43,-28.79,-31.33,0,*44
1486548150.46,61360,10.88,73138.5,0.43,-28.69,-31.29,0,*44
1486548151.7,61361,10.88,73138.5,0.43,-28.79,-31.51,0,*4B
1486548152.89,61362,10.88,73136.5,0.43,-29.07,-31.79,0,*4A
1486548154.14,61363,10.88,73138.0,0.41,-29.39,-32.13,0,*4B
1486548155.36,61364,10.88,73138.5,0.43,-29.23,-31.95,0,*48
1486548156.57,61365,10.88,73136.5,0.41,-28.69,-31.33,0,*48
1486548157.76,61366,10.88,73136.5,0.43,-28.53,-31.29,0,*4B
1486548159.02,61367,10.88,73134.0,0.43,-28.21,-30.89,0,*44
1486548160.21,61368,10.88,73138.5,0.43,-28.37,-31.17,0,*4A
1486548161.46,61369,10.88,73138.5,0.45,-28.09,-30.73,0,*43
1486548162.71,61370,10.88,73138.0,0.43,-27.99,-30.73,0,*4B
1486548163.96,61371,10.88,73136.0,0.43,-28.05,-30.89,0,*45
1486548165.18,61372,10.88,73138.0,0.43,-28.37,-31.11,0,*47
1486548166.38,61373,10.94,73142.3,0.43,-28.37,-31.29,0,*4D
1486548167.57,61374,10.88,73136.5,0.45,-28.31,-31.05,0,*44
1486548168.8,61375,10.88,73138.8,0.45,-28.09,-30.83,0,*41
1486548170.05,61376,10.88,73140.5,0.45,-28.43,-31.23,0,*47
1486548171.29,61377,10.88,73136.8,0.47,-28.75,-31.45,0,*41
1486548172.54,61378,10.88,73136.8,0.45,-28.63,-31.39,0,*40
1486548173.79,61379,10.88,73138.0,0.45,-28.59,-31.39,0,*48
1486548174.98,61380,10.88,73138.5,0.45,-28.31,-31.05,0,*4F
1486548176.23,61381,10.88,73140.8,0.47,-28.25,-31.01,0,*4D
1486548177.42,61382,10.88,73138.0,0.45,-28.97,-31.79,0,*4A
1486548178.67,61383,10.88,73138.8,0.47,-28.75,-31.45,0,*4A
1486548179.92,61384,10.94,73140.5,0.47,-28.75,-31.45,0,*4D
1486548181.14,61385,10.88,73136.3,0.45,-28.59,-31.29,0,*4A
1486548182.39,61386,10.88,73136.3,0.45,-28.59,-31.23,0,*43
1486548183.61,61387,10.88,73138.0,0.45,-28.31,-31.23,0,*4C
1486548184.84,61388,10.88,73138.0,0.45,-28.25,-31.05,0,*42
1486548186.03,61389,10.88,73136.0,0.45,-28.15,-31.05,0,*40
1486548187.28,61390,10.88,73138.3,0.45,-27.99,-30.89,0,*46
1486548188.53,61391,10.88,73140.3,0.45,-28.43,-31.39,0,*45
1486548189.77,61392,10.94,73140.0,0.45,-29.13,-31.95,0,*44
1486548190.99,61393,10.88,73136.0,0.45,-29.29,-32.23,0,*42
1486548192.24,61394,10.88,73138.8,0.45,-28.75,-31.61,0,*48
1486548193.45,61395,10.88,73138.3,0.43,-28.53,-31.51,0,*48
1486548194.64,61396,10.88,73136.5,0.43,-28.69,-31.67,0,*47
1486548195.87,61397,10.88,73140.5,0.45,-28.59,-31.45,0,*43
1486548197.09,61398,10.88,73138.8,0.43,-28.63,-31.45,0,*43
1486548198.29,61399,10.88,73140.3,0.43,-28.53,-31.45,0,*41
1486548199.51,61400,10.88,73138.0,0.45,-28.69,-31.51,0,*4C
1486548200.73,61401,10.88,73140.0,0.45,-28.97,-31.91,0,*40
1486548201.98,61402,10.88,73142.5,0.41,-29.35,-32.35,0,*43
1486548203.19,61403,10.88,73142.3,0.41,-29.23,-32.13,0,*41
1486548204.4,61404,10.88,73138.5,0.41,-29.23,-32.13,0,*46
1486548205.67,61405,10.88,73138.3,0.41,-29.01,-31.95,0,*4A
1486548206.92,61406,10.88,73140.0,0.37,-29.07,-31.95,0,*4E
1486548208.13,61407,10.88,73140.0,0.41,-29.07,-32.01,0,*40
1486548209.37,61408,10.88,73138.3,0.37,-29.29,-32.23,0,*42
1486548210.58,61409,10.88,73140.0,0.39,-29.13,-32.01,0,*44
1486548211.85,61410,10.88,73138.5,0.37,-28.63,-31.61,0,*41
1486548213.09,61411,10.88,73138.8,0.37,-28.97,-31.91,0,*44
1486548214.32,61412,10.88,73140.3,0.35,-28.97,-32.07,0,*49
1486548215.54,61413,10.88,73140.3,0.35,-29.13,-32.13,0,*40
1486548216.75,61414,10.88,73142.5,0.37,-29.07,-32.13,0,*40
1486548217.97,61415,10.88,73142.0,0.35,-28.75,-31.79,0,*48
1486548219.22,61416,10.88,73140.3,0.33,-28.69,-31.61,0,*49
1486548220.46,61417,10.88,73142.0,0.35,-28.63,-31.61,0,*44
1486548221.73,61418,10.88,73140.0,0.33,-28.79,-31.85,0,*4C
1486548222.96,61419,10.88,73142.8,0.35,-28.63,-31.29,0,*46
1486548224.17,61420,10.88,73142.3,0.33,-28.31,-31.29,0,*4D
1486548225.45,61421,10.88,73140.0,0.33,-28.79,-31.95,0,*47
1486548226.66,61422,10.88,73142.0,0.33,-28.69,-31.67,0,*48
1486548227.88,61423,10.88,73140.0,0.35,-28.43,-31.29,0,*4D
1486548229.13,61424,10.88,73140.3,0.33,-28.37,-31.51,0,*40
1486548230.35,61425,10.88,73142.5,0.33,-28.37,-31.29,0,*4E
1486548231.57,61426,10.88,73142.3,0.33,-28.31,-31.29,0,*4B
1486548232.84,61427,10.88,73138.8,0.33,-28.21,-31.23,0,*41
1486548234.11,61428,10.88,73142.0,0.33,-27.99,-30.95,0,*4E
1486548235.33,61429,10.88,73142.0,0.35,-27.99,-31.05,0,*41
1486548236.55,61430,10.88,73138.5,0.33,-28.37,-31.29,0,*4A
1486548237.79,61431,10.94,73146.8,0.33,-28.05,-31.05,0,*44
1486548239.07,61432,10.88,73142.5,0.33,-28.05,-31.23,0,*43
1486548240.26,61433,10.88,73142.8,0.31,-28.31,-31.29,0,*4D
1486548241.52,61434,10.88,73140.8,0.31,-28.05,-31.23,0,*47
1486548242.74,61435,10.88,73140.8,0.31,-28.21,-31.29,0,*4A
1486548243.96,61436,10.94,73144.5,0.33,-28.31,-31.29,0,*4A
1486548245.18,61437,10.88,73142.8,0.33,-28.15,-31.29,0,*4D
1486548246.43,61438,10.88,73140.0,0.31,-28.21,-31.23,0,*4D
1486548247.62,61439,10.94,73144.0,0.31,-28.15,-31.29,0,*41
1486548248.85,61440,10.94,73144.0,0.31,-28.21,-31.29,0,*48
1486548250.1,61441,10.88,73140.8,0.31,-28.05,-31.11,0,*44
1486548251.32,61442,10.88,73136.5,0.31,-28.47,-31.45,0,*40
1486548252.57,61443,10.88,73140.5,0.29,-28.25,-31.33,0,*4D
1486548253.81,61444,10.88,73138.5,0.29,-28.69,-31.91,0,*4A
1486548255.01,61445,10.88,73142.8,0.31,-28.53,-31.79,0,*4D
1486548256.25,61446,10.88,73140.5,0.29,-28.59,-31.67,0,*42
1486548257.52,61447,10.94,73144.3,0.29,-28.59,-31.85,0,*4F
1486548258.75,61448,10.88,73142.0,0.27,-28.37,-31.51,0,*4F
1486548260.01,61449,10.88,73140.3,0.29,-28.43,-31.57,0,*45
1486548261.23,61450,10.88,73136.8,0.27,-28.37,-31.51,0,*46
1486548262.48,61451,10.88,73142.3,0.27,-28.25,-31.57,0,*42
1486548263.7,61452,10.88,73140.0,0.27,-28.53,-31.73,0,*46
1486548264.94,61453,10.88,73140.3,0.23,-28.47,-31.61,0,*45
1486548266.17,61454,10.88,73140.8,0.27,-28.53,-31.57,0,*46
1486548267.39,61455,10.88,73142.0,0.23,-28.63,-31.79,0,*4C
1486548268.66,61456,10.88,73140.8,0.21,-28.63,-31.85,0,*4E
1486548269.9,61457,10.88,73140.8,0.21,-29.13,-32.35,0,*41
1486548271.15,61458,10.88,73142.8,0.21,-28.97,-32.19,0,*4D
1486548272.39,61459,10.88,73142.3,0.21,-28.97,-32.29,0,*4F
1486548273.61,61460,10.88,73140.5,0.19,-28.97,-32.29,0,*4E
1486548274.86,61461,10.88,73140.3,0.17,-28.85,-32.19,0,*41
1486548276.11,61462,10.88,73140.0,0.15,-28.75,-32.19,0,*4F
1486548277.36,61463,10.88,73142.8,0.15,-28.75,-32.07,0,*41
1486548278.61,61464,10.88,73140.8,0.13,-28.91,-32.13,0,*4F
1486548279.86,61465,10.88,73142.8,0.13,-28.79,-32.13,0,*48
1486548281.13,61466,10.88,73142.8,0.11,-28.63,-31.95,0,*4F
1486548282.4,61467,10.88,73142.8,0.11,-28.75,-31.95,0,*49
1486548283.67,61468,10.88,73140.0,0.13,-28.59,-31.91,0,*4E
1486548284.94,61469,10.88,73144.3,0.11,-28.75,-32.07,0,*4F
1486548286.15,61470,10.88,73140.0,0.09,-28.79,-32.01,0,*74
1486548287.39,61471,10.88,73142.8,0.07,-28.47,-31.67,0,*75
1486548288.62,61472,10.88,73142.3,0.09,-27.99,-31.39,0,*7F
1486548289.87,61473,10.88,73144.0,0.07,-28.25,-31.45,0,*73
1486548291.11,61474,10.88,73142.0,0.07,-28.15,-31.57,0,*74
1486548292.36,61475,10.88,73142.0,0.07,-28.31,-31.61,0,*76
1486548293.62,61476,10.88,73142.0,0.07,-27.83,-31.23,0,*75
1486548294.89,61477,10.88,73140.5,0.07,-28.09,-31.57,0,*7A
1486548296.16,61478,10.88,73142.8,0.07,-27.99,-31.23,0,*70
1486548297.42,61479,10.94,73144.8,0.07,-27.99,-31.39,0,*7A
1486548298.64,61480,10.88,73140.5,0.05,-28.53,-31.85,0,*70
1486548299.85,61481,10.88,73140.8,0.05,-28.37,-31.73,0,*7A
1486548301.1,61482,10.88,73146.0,0.07,-27.93,-31.23,0,*7F
1486548302.28,61483,10.88,73144.8,0.05,-28.31,-31.67,0,*7B
1486548303.55,61484,10.88,73142.8,-0.01,-28.59,-31.91,0,*52
1486548304.82,61485,10.88,73140.8,-0.01,-28.47,-31.91,0,*5C
1486548306.09,61486,10.88,73142.5,-0.01,-28.47,-31.91,0,*5F
1486548307.34,61487,10.88,73146.5,-0.03,-28.25,-31.61,0,*57
1486548308.56,61488,10.88,73142.0,-0.03,-27.93,-31.39,0,*57
1486548309.77,61489,10.88,73142.5,-0.03,-27.51,-30.95,0,*5F
1486548311.02,61490,10.88,73140.3,-0.03,-27.61,-30.95,0,*54
1486548312.28,61491,10.88,73140.3,-0.03,-27.61,-30.89,0,*58
1486548313.51,61492,10.88,73142.3,-0.03,-27.51,-30.89,0,*58
1486548314.72,61493,10.88,73142.3,-0.03,-27.51,-30.95,0,*54
1486548315.94,61494,10.88,73142.8,-0.03,-27.51,-30.95,0,*53
1486548317.17,61495,10.88,73140.8,-0.03,-27.51,-30.89,0,*5F
1486548318.36,61496,10.88,73142.3,-0.03,-27.67,-31.05,0,*5C
1486548319.59,61497,10.88,73140.0,-0.03,-27.61,-31.05,0,*5B
1486548320.84,61498,10.88,73144.5,-0.03,-27.61,-30.95,0,*5C
1486548322.09,61499,10.88,73142.5,-0.03,-27.23,-30.73,0,*53
1486548323.37,61500,10.88,73140.0,-0.05,-27.45,-30.89,0,*51
1486548324.6,61501,10.88,73146.5,-0.05,-27.29,-30.67,0,*5A
1486548325.85,61502,10.88,73142.8,-0.07,-27.45,-30.95,0,*5C
1486548327.07,61503,10.88,73136.8,-0.07,-27.71,-31.11,0,*57
1486548328.31,61504,10.88,73144.5,-0.07,-27.29,-30.77,0,*5C
1486548329.5,61505,10.88,73140.3,-0.07,-27.51,-31.01,0,*52
1486548330.7,61506,10.88,73144.3,-0.07,-27.55,-31.01,0,*55
1486548331.95,61507,10.88,73140.0,-0.09,-27.93,-31.51,0,*55
1486548333.18,61508,10.88,73140.3,-0.11,-27.93,-31.39,0,*6D
1486548334.4,61509,10.88,73142.0,-0.11,-27.71,-31.23,0,*6B
1486548335.66,61510,10.88,73142.5,-0.09,-27.71,-31.23,0,*5A
1486548336.91,61511,10.88,73142.8,-0.09,-27.89,-31.39,0,*57
1486548338.13,61512,10.88,73140.8,-0.11,-27.89,-31.51,0,*63
1486548339.39,61513,10.88,73142.5,-0.13,-27.77,-31.23,0,*64
1486548340.67,61514,10.88,73142.0,-0.13,-27.39,-30.95,0,*65
1486548341.92,61515,10.88,73146.5,-0.13,-27.39,-31.05,0,*6C
1486548343.19,61516,10.88,73140.3,-0.13,-27.61,-31.29,0,*6C
1486548344.42,61517,10.88,73142.8,-0.15,-27.83,-31.45,0,*6D
1486548345.65,61518,10.88,73142.5,-0.15,-27.45,-31.05,0,*6C
1486548346.87,61519,10.88,73142.3,-0.15,-27.45,-31.05,0,*6D
1486548348.12,61520,10.88,73140.8,-0.15,-27.39,-30.95,0,*64
1486548349.41,61521,10.88,73146.8,-0.17,-27.35,-31.11,0,*66
1486548350.69,61522,10.88,73142.8,-0.17,-27.45,-30.95,0,*6F
1486548351.92,61523,10.88,73144.3,-0.21,-27.29,-30.95,0,*61
1486548353.2,61524,10.88,73146.5,-0.17,-27.19,-30.89,0,*6D
1486548354.4,61525,10.88,73140.0,-0.21,-27.51,-31.17,0,*63
1486548355.65,61526,10.88,73142.5,-0.21,-27.99,-31.51,0,*66
1486548356.9,61527,10.88,73144.0,-0.23,-27.71,-31.51,0,*63
1486548358.12,61528,10.88,73140.0,-0.25,-27.77,-31.57,0,*6A
1486548359.35,61529,10.88,73146.0,-0.25,-27.35,-31.01,0,*6E
1486548360.57,61530,10.88,73140.8,-0.25,-27.35,-31.05,0,*62
1486548361.8,61531,10.88,73140.8,-0.25,-27.23,-31.05,0,*64
1486548363.03,61532,10.88,73142.8,-0.25,-27.23,-31.01,0,*63
1486548364.26,61533,10.88,73142.3,-0.27,-27.55,-31.45,0,*61
1486548365.5,61534,10.88,73142.3,-0.29,-27.61,-31.29,0,*65
1486548366.73,61535,10.88,73142.0,-0.29,-27.77,-31.61,0,*6F
1486548367.99,61536,10.88,73138.3,-0.29,-27.39,-31.23,0,*60
1486548369.21,61537,10.88,73144.3,-0.31,-27.51,-31.33,0,*67
1486548370.47,61538,10.88,73140.5,-0.31,-27.45,-31.33,0,*6D
1486548371.69,61539,10.88,73142.0,-0.33,-27.83,-31.67,0,*65
1486548372.95,61540,10.88,73146.5,-0.35,-27.67,-31.51,0,*62
1486548374.17,61541,10.88,73144.8,-0.35,-27.55,-31.33,0,*66
1486548375.37,61542,10.88,73140.8,-0.37,-27.55,-31.33,0,*67
1486548376.57,61543,10.88,73140.5,-0.37,-27.13,-31.01,0,*65
1486548377.8,61544,10.88,73140.3,-0.37,-27.39,-31.17,0,*6D
1486548379.03,61545,10.88,73144.8,-0.37,-27.45,-31.29,0,*6A
1486548380.25,61546,10.88,73144.3,-0.43,-27.51,-31.33,0,*64
1486548381.51,61547,10.88,73140.5,-0.43,-27.45,-31.29,0,*6B
1486548382.76,61548,10.88,73144.5,-0.43,-27.77,-31.61,0,*69
1486548384.01,61549,10.88,73144.3,-0.43,-27.61,-31.67,0,*69
1486548385.26,61550,10.88,73140.8,-0.45,-27.35,-31.11,0,*67
1486548386.49,61551,10.88,73144.8,-0.45,-27.51,-31.51,0,*60
1486548387.74,61552,10.88,73140.5,-0.47,-27.07,-30.95,0,*6B
1486548389.02,61553,10.88,73144.5,-0.47,-26.71,-30.51,0,*62
1486548390.26,61554,10.88,73146.3,-0.47,-27.35,-31.29,0,*6A
1486548391.49,61555,10.88,73146.8,-0.49,-27.67,-31.57,0,*6B
1486548392.75,61556,10.88,73140.5,-0.51,-27.45,-31.45,0,*62
1486548394.03,61557,10.88,73142.8,-0.51,-27.39,-31.39,0,*63
1486548395.29,61558,10.88,73142.5,-0.51,-27.55,-31.39,0,*66
1486548396.51,61559,10.88,73144.8,-0.53,-27.35,-31.29,0,*62
1486548397.79,61560,10.88,73144.8,-0.55,-27.35,-31.23,0,*64
1486548398.99,61561,10.88,73142.8,-0.57,-27.07,-31.17,0,*61
1486548400.25,61562,10.88,73144.3,-0.57,-26.97,-30.95,0,*61
1486548401.51,61563,10.88,73146.0,-0.57,-26.81,-30.77,0,*6B
1486548402.81,61564,10.88,73140.5,-0.59,-26.81,-30.77,0,*62
1486548404.07,61565,10.88,73140.5,-0.59,-26.87,-30.77,0,*65
1486548405.33,61566,10.88,73142.3,-0.59,-26.07,-29.89,0,*67
1486548406.59,61567,10.88,73146.3,-0.59,-26.17,-30.23,0,*6F
1486548407.87,61568,10.88,73142.3,-0.59,-26.17,-30.05,0,*64
1486548409.1,61569,10.88,73140.3,-0.59,-26.07,-30.11,0,*61
1486548410.35,61570,10.88,73144.3,-0.59,-26.49,-30.39,0,*69
1486548411.63,61571,10.88,73146.0,-0.59,-26.55,-30.51,0,*6B
1486548412.86,61572,10.88,73146.0,-0.63,-26.07,-29.95,0,*66
1486548414.09,61573,10.88,73142.8,-0.61,-26.03,-30.01,0,*64
1486548415.29,61574,10.88,73144.5,-0.61,-26.07,-30.11,0,*66
1486548416.51,61575,10.88,73144.0,-0.63,-26.23,-30.27,0,*66
1486548417.74,61576,10.88,73146.5,-0.63,-25.87,-29.79,0,*6B
1486548418.96,61577,10.88,73142.5,-0.63,-25.91,-29.83,0,*68
1486548420.23,61578,10.88,73142.0,-0.63,-26.03,-30.01,0,*6D
1486548421.51,61579,10.88,73144.5,-0.67,-26.13,-30.17,0,*6E
1486548422.76,61580,10.88,73142.8,-0.67,-26.45,-30.39,0,*67
1486548423.99,61581,10.88,73142.5,-0.69,-26.03,-30.05,0,*65
1486548425.22,61582,10.88,73142.5,-0.69,-26.17,-30.27,0,*63
1486548426.48,61583,10.88,73140.8,-0.67,-26.29,-30.33,0,*64
1486548427.68,61584,10.88,73144.3,-0.69,-26.49,-30.45,0,*6A
1486548428.94,61585,10.88,73144.3,-0.69,-26.33,-30.39,0,*6D
1486548430.17,61586,10.88,73142.5,-0.71,-26.49,-30.67,0,*61
1486548431.43,61587,10.88,73142.3,-0.71,-26.33,-30.27,0,*69
1486548432.62,61588,10.88,73140.3,-0.73,-26.07,-30.11,0,*66
1486548433.88,61589,10.88,73144.8,-0.73,-26.17,-30.17,0,*60
1486548435.08,61590,10.88,73142.3,-0.73,-26.07,-30.11,0,*6F
1486548436.27,61591,10.88,73142.8,-0.73,-25.91,-30.11,0,*62
1486548437.52,61592,10.88,73144.0,-0.75,-26.07,-30.01,0,*6A
1486548438.78,61593,10.88,73146.8,-0.75,-26.29,-30.33,0,*66
1486548440.01,61594,10.88,73144.3,-0.77,-26.13,-30.23,0,*6B
1486548441.23,61595,10.88,73146.8,-0.77,-26.07,-30.05,0,*6B
1486548442.46,61596,10.88,73144.3,-0.77,-26.07,-30.17,0,*6B
1486548443.72,61597,10.88,73146.0,-0.79,-26.07,-30.17,0,*64
1486548444.98,61598,10.88,73144.5,-0.77,-25.97,-30.01,0,*68
1486548446.23,61599,10.88,73144.8,-0.79,-26.07,-30.05,0,*69
1486548447.48,61600,10.88,73140.8,-0.79,-25.81,-29.83,0,*61
1486548448.74,61601,10.88,73144.5,-0.81,-25.71,-29.73,0,*67
1486548450.02,61602,10.88,73144.3,-0.79,-26.33,-30.55,0,*6A
1486548451.28,61603,10.88,73142.8,-0.83,-26.71,-31.01,0,*68
1486548452.53,61604,10.88,73142.8,-0.85,-26.61,-30.89,0,*69
1486548453.81,61605,10.88,73142.8,-0.85,-26.71,-30.89,0,*69
1486548455.06,61606,10.88,73140.5,-0.91,-25.97,-30.05,0,*60
1486548456.28,61607,10.88,73142.0,-0.91,-26.23,-30.39,0,*62
1486548457.5,61608,10.88,73140.8,-0.89,-26.23,-30.33,0,*6E
1486548458.79,61609,10.88,73140.8,-0.93,-25.71,-29.89,0,*69
1486548460.03,61610,10.88,73144.3,-0.95,-25.29,-29.39,0,*61
1486548461.3,61611,10.88,73142.0,-0.93,-25.29,-29.39,0,*66
1486548462.52,61612,10.88,73144.8,-0.93,-25.65,-29.79,0,*69
1486548463.73,61613,10.88,73142.8,-0.95,-26.03,-30.11,0,*6B
1486548464.96,61614,10.88,73142.0,-0.95,-26.13,-30.23,0,*6C
1486548466.17,61615,10.88,73146.8,-0.95,-26.03,-29.95,0,*69
1486548467.42,61616,10.88,73142.8,-0.95,-25.55,-29.73,0,*62
1486548468.66,61617,10.88,73146.5,-0.95,-25.45,-29.39,0,*6C
1486548469.88,61618,10.88,73146.0,-0.97,-25.19,-29.23,0,*63
1486548471.1,61619,10.88,73142.8,-0.99,-25.13,-29.17,0,*61
1486548472.39,61620,10.88,73142.3,-0.97,-25.71,-30.01,0,*6E
1486548473.64,61621,10.88,73146.5,-0.99,-25.75,-29.89,0,*6D
1486548474.9,61622,10.88,73142.3,-0.99,-25.75,-29.89,0,*6E
1486548476.13,61623,10.88,73146.0,-0.99,-25.55,-29.61,0,*6B
1486548477.38,61624,10.88,73146.8,-1.01,-25.23,-29.17,0,*5C
1486548478.64,61625,10.88,73142.5,-1.01,-25.13,-29.13,0,*5A
1486548479.86,61626,10.88,73144.8,-0.99,-25.13,-29.01,0,*6A
1486548481.06,61627,10.88,73144.5,-1.03,-25.19,-29.23,0,*53
1486548482.31,61628,10.88,73144.3,-1.01,-25.09,-29.17,0,*58
1486548483.51,61629,10.88,73142.8,-1.03,-25.19,-29.23,0,*5D
1486548484.72,61630,10.88,73144.5,-1.03,-25.35,-29.57,0,*58
1486548485.97,61631,10.88,73144.3,-1.03,-25.29,-29.39,0,*5C
1486548487.22,61632,10.88,73144.5,-1.03,-25.29,-29.51,0,*51
1486548488.48,61633,10.88,73144.0,-1.03,-25.81,-30.05,0,*5B
1486548489.74,61634,10.88,73142.3,-1.07,-25.97,-30.05,0,*5F
1486548490.97,61635,10.88,73142.5,-1.07,-25.35,-29.29,0,*50
1486548492.2,61636,10.88,73144.0,-1.07,-25.23,-29.39,0,*55
1486548493.39,61637,10.88,73144.8,-1.11,-24.93,-29.07,0,*54
1486548494.62,61638,10.88,73144.5,-1.13,-24.77,-28.97,0,*5B
1486548495.9,61639,10.88,73146.3,-1.07,-24.71,-28.91,0,*5F
1486548497.13,61640,10.88,73144.5,-1.07,-24.77,-28.91,0,*57
1486548498.37,61641,10.88,73144.0,-1.11,-24.57,-28.59,0,*57